Simultaneous Nadir Overpasses (SNOs) Predictions

Prediction of SNOs between LANDSAT-8 and NOAA-19 Satellite Orbit:

Table of predicted SNOs for the next 14.0 days since TLE Epoch: 4/25/2020
Index Date (LANDSAT-8) Time (LANDSAT-8) Lat,Lon (LANDSAT-8) SZA (LANDSAT-8 ) Date (NOAA-19) Time (NOAA-19) Lat,Lon (NOAA-19) SZA (NOAA-19 ) Distance(km) Time Diff (sec)
1 04/25/2020 06:23:45 79.65, 108.60 67.27 04/25/2020 06:23:12 79.67, 108.61 67.27 1.86 33
2 04/25/2020 07:13:12 -79.66, -83.72 112.74 04/25/2020 07:14:07 -79.63, -83.71 112.75 3.12 55
3 04/27/2020 11:57:28 -79.68,-154.67 113.41 04/27/2020 11:56:27 -79.67,-154.64 113.43 0.65 61
4 04/27/2020 12:46:55 79.63, 12.65 66.52 04/27/2020 12:47:31 79.66, 12.76 66.56 3.44 36
5 04/29/2020 18:20:38 -79.66, 109.39 114.14 04/29/2020 18:20:46 -79.67, 109.39 114.12 1.64 8
6 05/01/2020 23:54:20 79.66,-154.02 65.21 05/01/2020 23:54:10 79.68,-153.97 65.23 2.59 10
7 05/02/2020 00:43:51 -79.52, 12.64 115.01 05/02/2020 00:44:58 -79.47, 15.44 114.79 57.01 67
8 05/04/2020 05:28:03 -79.68, -57.29 115.41 05/04/2020 05:27:24 -79.68, -57.23 115.42 1.07 39
9 05/04/2020 06:17:29 79.67, 110.27 64.57 05/04/2020 06:18:29 79.67, 110.13 64.58 2.67 60
10 05/06/2020 11:01:45 79.68, 39.26 63.97 05/06/2020 11:00:49 79.71, 39.23 63.97 3.37 56
11 05/06/2020 11:51:13 -79.66,-153.26 116.08 05/06/2020 11:51:43 -79.68,-153.21 116.04 2.97 30




NCC Satellite Simultaneous Nadir Overpasses (SNOs) Prediction Service
